EW4071 Weather Reports


Display with metric or nautical units.
time (UTC)temp
F
wind
direction
speed
MPH
gust
MPH
rain 1hr
in
rain 24hr
in
rain mn
in
humidity
%
barometer
mb
20260508004549 71 192 6.0 12.0 0.00 0.00 0.00 36 1009.8
20260508003042 72 204 7.0 13.0 0.00 0.00 0.00 35 1009.7
20260508001542 72 212 3.0 13.0 0.00 0.00 0.00 36 1009.8
20260508000039 72 183 5.0 15.0 0.00 0.00 0.00 35 1009.8
20260507234539 73 202 8.0 15.0 0.00 0.00 0.00 34 1009.8
20260507233054 74 211 8.0 13.0 0.00 0.00 0.00 32 1009.8
20260507231538 74 170 8.0 12.0 0.00 0.00 0.00 33 1009.9
20260507230035 74 214 6.0 12.0 0.00 0.00 0.00 32 1010.1
20260507224533 74 223 5.0 12.0 0.00 0.00 0.00 31 1010.3
20260507223032 75 189 5.0 13.0 0.00 0.00 0.00 34 1010.4
20260507221535 75 204 5.0 10.0 0.00 0.00 0.00 33 1010.6
20260507220030 74 180 7.0 14.0 0.00 0.00 0.00 31 1010.7
20260507214526 74 232 2.0 14.0 0.00 0.00 0.00 31 1010.9
20260507213028 74 218 7.0 11.0 0.00 0.00 0.00 30 1011.1
20260507211523 73 251 7.0 13.0 0.00 0.00 0.00 32 1011.3
20260507210018 74 222 8.0 15.0 0.00 0.00 0.00 30 1011.6
20260507204520 73 205 8.0 11.0 0.00 0.00 0.00 33 1012.0
20260507203013 72 225 5.0 12.0 0.00 0.00 0.00 36 1012.3
20260507201514 72 274 9.0 15.0 0.00 0.00 0.00 34 1012.7
20260507200011 72 245 4.0 13.0 0.00 0.00 0.00 34 1012.9
20260507194505 71 251 0.0 9.0 0.00 0.00 0.00 35 1013.2
20260507193201 70 202 7.0 14.0 0.00 0.00 0.00 37 1013.5
20260507191556 70 254 2.0 14.0 0.00 0.00 0.00 40 1013.8
20260507190056 69 285 4.0 15.0 0.00 0.00 0.00 41 1014.0
20260507184552 69 261 3.0 16.0 0.00 0.00 0.00 41 1014.3
20260507183048 68 230 6.0 14.0 0.00 0.00 0.00 44 1014.4
20260507181552 67 258 3.0 11.0 0.00 0.00 0.00 47 1014.7
20260507180041 66 226 7.0 14.0 0.00 0.00 0.00 44 1015.1
20260507174544 66 220 6.0 16.0 0.00 0.00 0.00 46 1015.3
20260507173052 65 200 7.0 13.0 0.00 0.00 0.00 47 1015.6
20260507171541 65 245 2.0 14.0 0.00 0.00 0.00 50 1016.0
20260507170028 64 264 4.0 20.0 0.00 0.00 0.00 50 1016.1
20260507164530 63 244 8.0 15.0 0.00 0.00 0.00 51 1016.3
20260507163022 62 231 8.0 15.0 0.00 0.00 0.00 52 1016.5
20260507161527 63 249 7.0 15.0 0.00 0.00 0.00 51 1016.7
20260507160017 61 206 6.0 12.0 0.00 0.00 0.00 56 1016.9
20260507154513 60 232 4.0 14.0 0.00 0.00 0.00 56 1017.0
20260507153012 60 238 5.0 11.0 0.00 0.00 0.00 56 1017.2
20260507151510 60 251 1.0 9.0 0.00 0.00 0.00 62 1017.5
20260507150010 60 243 2.0 8.0 0.00 0.00 0.00 58 1017.6
20260507144506 58 254 1.0 7.0 0.00 0.00 0.00 64 1017.7
20260507143005 58 270 0.0 7.0 0.00 0.00 0.00 65 1017.7
20260507141635 57 229 3.0 6.0 0.00 0.00 0.00 66 1017.8
20260507140055 55 242 1.0 5.0 0.00 0.00 0.00 72 1018.1
20260507134559 54 255 0.0 0.0 0.00 0.00 0.00 75 1018.1
20260507133049 53 262 0.0 0.0 0.00 0.00 0.00 77 1018.2
20260507131545 52 249 0.0 0.0 0.00 0.00 0.00 75 1018.0
20260507130042 51 249 0.0 0.0 0.00 0.00 0.00 77 1017.9
20260507124541 49 249 0.0 0.0 0.00 0.00 0.00 81 1017.8
20260507123043 47 322 0.0 0.0 0.00 0.00 0.00 87 1017.7
20260507121542 45 322 0.0 0.0 0.00 0.00 0.00 88 1017.5
20260507120044 45 322 0.0 0.0 0.00 0.00 0.00 89 1017.5
20260507114541 44 322 0.0 0.0 0.00 0.00 0.00 89 1017.3
20260507113042 44 322 0.0 0.0 0.00 0.00 0.00 90 1017.3
20260507111534 45 322 0.0 0.0 0.00 0.00 0.00 88 1017.3
20260507110036 45 322 0.0 0.0 0.00 0.00 0.00 87 1017.3
20260507104528 46 322 0.0 0.0 0.00 0.00 0.00 85 1017.3
20260507103026 47 322 0.0 0.0 0.00 0.00 0.00 85 1017.3
20260507101524 48 322 0.0 0.0 0.00 0.00 0.00 83 1017.3
20260507100034 48 322 0.0 0.0 0.00 0.00 0.00 83 1017.3
20260507094522 48 322 0.0 0.0 0.00 0.00 0.00 83 1017.5
20260507093022 48 322 0.0 0.0 0.00 0.00 0.00 82 1017.5
20260507091522 47 322 0.0 0.0 0.00 0.00 0.00 82 1017.6
20260507090017 47 322 0.0 0.0 0.00 0.00 0.00 81 1017.5
20260507084516 48 322 0.0 0.0 0.00 0.00 0.00 81 1017.5
20260507083016 48 322 0.0 0.0 0.00 0.00 0.00 80 1017.4
20260507081513 48 322 0.0 0.0 0.00 0.00 0.00 80 1017.6
20260507080013 48 322 0.0 0.0 0.00 0.00 0.00 78 1017.7
20260507074518 48 322 0.0 0.0 0.00 0.00 0.00 78 1017.6
20260507073010 48 322 0.0 0.0 0.00 0.00 0.00 77 1017.8
20260507071511 48 322 0.0 0.0 0.00 0.00 0.00 76 1018.0
20260507070012 47 322 0.0 0.0 0.00 0.00 0.00 77 1017.8
20260507064506 48 322 0.0 0.0 0.00 0.00 0.00 76 1018.1
20260507063005 47 322 0.0 0.0 0.00 0.00 0.00 76 1018.4
20260507061504 47 322 0.0 0.0 0.00 0.00 0.00 74 1017.9
20260507060005 47 322 0.0 0.0 0.00 0.00 0.00 76 1017.8
20260507054502 47 322 0.0 0.0 0.00 0.00 0.00 74 1018.0
20260507053059 48 322 0.0 0.0 0.00 0.00 0.00 73 1018.2
20260507051556 49 322 0.0 0.0 0.00 0.00 0.00 71 1018.2
20260507050056 50 322 0.0 0.0 0.00 0.00 0.00 67 1017.7
20260507044552 51 322 0.0 0.0 0.00 0.00 0.00 66 1017.2
20260507043051 51 322 0.0 0.0 0.00 0.00 0.00 66 1017.6
20260507041549 51 322 0.0 0.0 0.00 0.00 0.00 66 1017.6
20260507040052 52 322 0.0 0.0 0.00 0.00 0.00 64 1017.6
20260507034605 53 322 0.0 0.0 0.00 0.00 0.00 63 1017.5
20260507033102 53 12 0.0 0.0 0.00 0.00 0.00 61 1017.6
20260507031547 54 12 0.0 0.0 0.00 0.00 0.00 59 1017.3
20260507030046 55 12 0.0 0.0 0.00 0.00 0.00 58 1017.3
20260507024553 55 17 0.0 0.0 0.00 0.00 0.00 57 1017.3
20260507023044 56 83 0.0 0.0 0.00 0.00 0.00 56 1017.0
20260507021540 56 83 0.0 0.0 0.00 0.00 0.00 54 1016.8
20260507020039 57 87 0.0 0.0 0.00 0.00 0.00 52 1016.6
20260507014538 58 347 0.0 0.0 0.00 0.00 0.00 50 1016.4
20260507013040 59 17 0.0 0.0 0.00 0.00 0.00 48 1016.3
20260507011539 59 10 0.0 0.0 0.00 0.00 0.00 46 1016.3
20260507010040 60 34 0.0 0.0 0.00 0.00 0.00 46 1016.2